Time,TemperatureF,DewpointF,PressureIn,WindDirection,WindDirectionDegrees,WindSpeedMPH,WindSpeedGustMPH,Humidity,HourlyPrecipIn,Conditions,Clouds,dailyrainin,SoftwareType,DateUTC
2013-09-12 00:03:00,64.7,57.7,29.89,SSW,213,4.0,6.0,78,0.00,,,0.00,Wunderground v.1.15,2013-09-12 07:03:00,
2013-09-12 00:08:00,64.6,57.6,29.89,SSW,209,6.0,6.0,78,0.00,,,0.00,Wunderground v.1.15,2013-09-12 07:08:00,
2013-09-12 00:13:00,64.5,57.8,29.89,SSW,200,4.0,5.0,79,0.00,,,0.00,Wunderground v.1.15,2013-09-12 07:13:00,
2013-09-12 00:19:00,64.4,57.7,29.89,SSW,205,3.0,5.0,79,0.00,,,0.00,Wunderground v.1.15,2013-09-12 07:19:00,
2013-09-12 00:24:00,64.3,57.6,29.89,SSW,202,2.0,7.0,79,0.00,,,0.00,Wunderground v.1.15,2013-09-12 07:24:00,
2013-09-12 00:29:00,64.3,57.6,29.89,SSW,202,5.0,7.0,79,0.00,,,0.00,Wunderground v.1.15,2013-09-12 07:29:00,
2013-09-12 00:34:00,64.3,57.6,29.89,SSW,202,1.0,4.0,79,0.00,,,0.00,Wunderground v.1.15,2013-09-12 07:34:00,
2013-09-12 00:39:00,64.3,57.6,29.89,SSW,200,5.0,5.0,79,0.00,,,0.00,Wunderground v.1.15,2013-09-12 07:39:00,
2013-09-12 00:45:00,64.3,57.6,29.90,SSW,200,2.0,4.0,79,0.00,,,0.00,Wunderground v.1.15,2013-09-12 07:45:00,
2013-09-12 00:50:00,64.3,57.6,29.89,SSW,200,4.0,4.0,79,0.00,,,0.00,Wunderground v.1.15,2013-09-12 07:50:00,
2013-09-12 00:56:00,64.3,57.6,29.89,SSW,200,1.0,5.0,79,0.00,,,0.00,Wunderground v.1.15,2013-09-12 07:56:00,
2013-09-12 01:02:00,64.3,57.6,29.89,SSW,200,2.0,6.0,79,0.00,,,0.00,Wunderground v.1.15,2013-09-12 08:02:00,
2013-09-12 01:07:00,64.3,57.6,29.90,SSW,196,2.0,6.0,79,0.00,,,0.00,Wunderground v.1.15,2013-09-12 08:07:00,
2013-09-12 01:12:00,64.3,57.6,29.90,SSW,196,1.0,4.0,79,0.00,,,0.00,Wunderground v.1.15,2013-09-12 08:12:00,
2013-09-12 01:17:00,64.2,57.5,29.90,SSW,196,3.0,4.0,79,0.00,,,0.00,Wunderground v.1.15,2013-09-12 08:17:00,
2013-09-12 01:22:00,64.1,57.5,29.90,SSW,196,0.0,2.0,79,0.00,,,0.00,Wunderground v.1.15,2013-09-12 08:22:00,
2013-09-12 01:28:00,64.1,57.5,29.90,SSW,196,0.0,2.0,79,0.00,,,0.00,Wunderground v.1.15,2013-09-12 08:28:00,
2013-09-12 01:33:00,64.0,57.4,29.90,SSW,196,0.0,0.0,79,0.00,,,0.00,Wunderground v.1.15,2013-09-12 08:33:00,
2013-09-12 01:38:00,63.9,57.6,29.90,SSW,196,1.0,2.0,80,0.00,,,0.00,Wunderground v.1.15,2013-09-12 08:38:00,
2013-09-12 01:43:00,63.8,57.5,29.90,SSW,196,0.0,2.0,80,0.00,,,0.00,Wunderground v.1.15,2013-09-12 08:43:00,
2013-09-12 01:49:00,63.8,57.5,29.90,SSW,196,0.0,2.0,80,0.00,,,0.00,Wunderground v.1.15,2013-09-12 08:49:00,
2013-09-12 01:54:00,63.7,57.4,29.91,SSW,196,0.0,0.0,80,0.00,,,0.00,Wunderground v.1.15,2013-09-12 08:54:00,
2013-09-12 01:59:00,63.6,57.3,29.90,SSW,196,0.0,0.0,80,0.00,,,0.00,Wunderground v.1.15,2013-09-12 08:59:00,
2013-09-12 02:04:00,63.6,57.3,29.90,SSW,196,0.0,1.0,80,0.00,,,0.00,Wunderground v.1.15,2013-09-12 09:04:00,
2013-09-12 02:09:00,63.5,57.2,29.91,SSW,196,0.0,1.0,80,0.00,,,0.00,Wunderground v.1.15,2013-09-12 09:09:00,
2013-09-12 02:14:00,63.4,57.1,29.91,SSW,196,0.0,0.0,80,0.00,,,0.00,Wunderground v.1.15,2013-09-12 09:14:00,
2013-09-12 02:19:00,63.3,57.0,29.90,SSW,196,0.0,0.0,80,0.00,,,0.00,Wunderground v.1.15,2013-09-12 09:19:00,
2013-09-12 02:24:00,63.2,57.3,29.91,SSW,196,1.0,1.0,81,0.00,,,0.00,Wunderground v.1.15,2013-09-12 09:24:00,
2013-09-12 02:29:00,63.1,57.2,29.91,SSW,196,0.0,2.0,81,0.00,,,0.00,Wunderground v.1.15,2013-09-12 09:29:00,
2013-09-12 02:34:00,63.0,57.1,29.90,SSW,196,2.0,3.0,81,0.00,,,0.00,Wunderground v.1.15,2013-09-12 09:34:00,
2013-09-12 02:39:00,62.9,57.3,29.90,SSW,196,1.0,3.0,82,0.00,,,0.00,Wunderground v.1.15,2013-09-12 09:39:00,
2013-09-12 02:44:00,62.8,57.2,29.90,SSW,196,1.0,4.0,82,0.00,,,0.00,Wunderground v.1.15,2013-09-12 09:44:00,
2013-09-12 02:49:00,62.7,57.1,29.90,SSW,196,1.0,4.0,82,0.00,,,0.00,Wunderground v.1.15,2013-09-12 09:49:00,
2013-09-12 02:54:00,62.7,57.1,29.90,SSW,196,0.0,2.0,82,0.00,,,0.00,Wunderground v.1.15,2013-09-12 09:54:00,
2013-09-12 02:59:00,62.6,57.4,29.90,SSW,196,1.0,3.0,83,0.00,,,0.00,Wunderground v.1.15,2013-09-12 09:59:00,
2013-09-12 03:04:00,62.5,57.3,29.90,SSW,196,0.0,4.0,83,0.00,,,0.00,Wunderground v.1.15,2013-09-12 10:04:00,
2013-09-12 03:09:00,62.5,57.3,29.90,SSW,196,3.0,4.0,83,0.00,,,0.00,Wunderground v.1.15,2013-09-12 10:09:00,
2013-09-12 03:14:00,62.4,57.2,29.90,SSW,196,3.0,5.0,83,0.00,,,0.00,Wunderground v.1.15,2013-09-12 10:14:00,
2013-09-12 03:19:00,62.3,57.1,29.90,SSW,196,1.0,5.0,83,0.00,,,0.00,Wunderground v.1.15,2013-09-12 10:19:00,
2013-09-12 03:24:00,62.3,57.4,29.90,SSW,196,0.0,3.0,84,0.00,,,0.00,Wunderground v.1.15,2013-09-12 10:24:00,
2013-09-12 03:29:00,62.3,57.4,29.90,SSW,196,0.0,4.0,84,0.00,,,0.00,Wunderground v.1.15,2013-09-12 10:29:00,
2013-09-12 03:34:00,62.3,57.4,29.90,SSW,196,1.0,3.0,84,0.00,,,0.00,Wunderground v.1.15,2013-09-12 10:34:00,
2013-09-12 03:39:00,62.2,57.3,29.90,SSW,196,2.0,5.0,84,0.00,,,0.00,Wunderground v.1.15,2013-09-12 10:39:00,
2013-09-12 03:44:00,62.2,57.3,29.90,SSW,196,1.0,2.0,84,0.00,,,0.00,Wunderground v.1.15,2013-09-12 10:44:00,
2013-09-12 03:49:00,62.2,57.3,29.90,SSW,196,0.0,3.0,84,0.00,,,0.00,Wunderground v.1.15,2013-09-12 10:49:00,
2013-09-12 03:54:00,62.2,57.3,29.90,SSW,195,2.0,3.0,84,0.00,,,0.00,Wunderground v.1.15,2013-09-12 10:54:00,
2013-09-12 03:59:00,62.1,57.2,29.90,SSW,196,0.0,3.0,84,0.00,,,0.00,Wunderground v.1.15,2013-09-12 10:59:00,
2013-09-12 04:04:00,62.1,57.2,29.90,SSW,196,0.0,3.0,84,0.00,,,0.00,Wunderground v.1.15,2013-09-12 11:04:00,
2013-09-12 04:09:00,62.0,57.1,29.90,SSW,196,0.0,3.0,84,0.00,,,0.00,Wunderground v.1.15,2013-09-12 11:09:00,
2013-09-12 04:14:00,62.0,57.1,29.90,SSW,196,0.0,0.0,84,0.00,,,0.00,Wunderground v.1.15,2013-09-12 11:14:00,
2013-09-12 04:19:00,61.9,57.0,29.90,SSW,196,0.0,1.0,84,0.00,,,0.00,Wunderground v.1.15,2013-09-12 11:19:00,
2013-09-12 04:24:00,61.8,57.2,29.91,SSW,196,0.0,2.0,85,0.00,,,0.00,Wunderground v.1.15,2013-09-12 11:24:00,
2013-09-12 04:29:00,61.8,57.2,29.90,SSW,196,0.0,2.0,85,0.00,,,0.00,Wunderground v.1.15,2013-09-12 11:29:00,
2013-09-12 04:34:00,61.7,57.1,29.91,SSW,196,0.0,1.0,85,0.00,,,0.00,Wunderground v.1.15,2013-09-12 11:34:00,
2013-09-12 04:39:00,61.6,57.0,29.91,SSW,196,0.0,1.0,85,0.00,,,0.00,Wunderground v.1.15,2013-09-12 11:39:00,
2013-09-12 04:44:00,61.5,56.9,29.91,SSW,196,0.0,0.0,85,0.00,,,0.00,Wunderground v.1.15,2013-09-12 11:44:00,
2013-09-12 04:49:00,61.4,56.8,29.91,SSW,196,0.0,0.0,85,0.00,,,0.00,Wunderground v.1.15,2013-09-12 11:49:00,
2013-09-12 04:54:00,61.3,56.8,29.91,SSW,196,0.0,0.0,85,0.00,,,0.00,Wunderground v.1.15,2013-09-12 11:54:00,
2013-09-12 04:59:00,61.2,56.7,29.91,SSW,196,0.0,0.0,85,0.00,,,0.00,Wunderground v.1.15,2013-09-12 11:59:00,
2013-09-12 05:04:00,61.1,56.9,29.91,SSW,196,0.0,0.0,86,0.00,,,0.00,Wunderground v.1.15,2013-09-12 12:04:00,
2013-09-12 05:09:00,61.1,56.9,29.91,SSW,196,0.0,0.0,86,0.00,,,0.00,Wunderground v.1.15,2013-09-12 12:09:00,
2013-09-12 05:14:00,60.9,56.7,29.91,SSW,196,0.0,0.0,86,0.00,,,0.00,Wunderground v.1.15,2013-09-12 12:14:00,
2013-09-12 05:19:00,60.9,56.7,29.92,SSW,196,0.0,1.0,86,0.00,,,0.00,Wunderground v.1.15,2013-09-12 12:19:00,
2013-09-12 05:24:00,60.7,56.5,29.91,SSW,196,0.0,0.0,86,0.00,,,0.00,Wunderground v.1.15,2013-09-12 12:24:00,
2013-09-12 05:29:00,60.7,56.5,29.92,SSW,196,0.0,0.0,86,0.00,,,0.00,Wunderground v.1.15,2013-09-12 12:29:00,
2013-09-12 05:34:00,60.6,56.4,29.91,SSW,196,0.0,0.0,86,0.00,,,0.00,Wunderground v.1.15,2013-09-12 12:34:00,
2013-09-12 05:39:00,60.5,56.3,29.92,SSW,196,0.0,0.0,86,0.00,,,0.00,Wunderground v.1.15,2013-09-12 12:39:00,
2013-09-12 05:44:00,60.4,56.2,29.92,SSW,196,0.0,0.0,86,0.00,,,0.00,Wunderground v.1.15,2013-09-12 12:44:00,
2013-09-12 05:49:00,60.3,56.4,29.92,SSW,196,0.0,1.0,87,0.00,,,0.00,Wunderground v.1.15,2013-09-12 12:49:00,
2013-09-12 05:54:00,60.3,56.1,29.92,SSW,196,1.0,1.0,86,0.00,,,0.00,Wunderground v.1.15,2013-09-12 12:54:00,
2013-09-12 05:59:00,60.2,56.3,29.92,SSW,196,0.0,2.0,87,0.00,,,0.00,Wunderground v.1.15,2013-09-12 12:59:00,
2013-09-12 06:04:00,60.2,56.3,29.92,SSW,196,0.0,1.0,87,0.00,,,0.00,Wunderground v.1.15,2013-09-12 13:04:00,
2013-09-12 06:09:00,60.2,56.3,29.92,SSW,196,0.0,1.0,87,0.00,,,0.00,Wunderground v.1.15,2013-09-12 13:09:00,
2013-09-12 06:14:00,60.2,56.3,29.92,SSW,196,1.0,2.0,87,0.00,,,0.00,Wunderground v.1.15,2013-09-12 13:14:00,
2013-09-12 06:19:00,60.1,56.5,29.92,SSW,196,1.0,2.0,88,0.00,,,0.00,Wunderground v.1.15,2013-09-12 13:19:00,
2013-09-12 06:24:00,60.1,56.5,29.92,SSW,196,1.0,3.0,88,0.00,,,0.00,Wunderground v.1.15,2013-09-12 13:24:00,
2013-09-12 06:29:00,60.1,56.5,29.92,SSW,196,1.0,3.0,88,0.00,,,0.00,Wunderground v.1.15,2013-09-12 13:29:00,
2013-09-12 06:34:00,60.1,56.5,29.92,SSW,196,1.0,3.0,88,0.00,,,0.00,Wunderground v.1.15,2013-09-12 13:34:00,
2013-09-12 06:39:00,60.1,56.5,29.92,SSW,196,2.0,4.0,88,0.00,,,0.00,Wunderground v.1.15,2013-09-12 13:39:00,
2013-09-12 06:44:00,60.1,56.5,29.92,SSW,196,0.0,3.0,88,0.00,,,0.00,Wunderground v.1.15,2013-09-12 13:44:00,
2013-09-12 06:49:00,60.1,56.8,29.92,SSW,196,1.0,3.0,89,0.00,,,0.00,Wunderground v.1.15,2013-09-12 13:49:00,
2013-09-12 06:54:00,60.1,56.8,29.93,SSW,196,0.0,1.0,89,0.00,,,0.00,Wunderground v.1.15,2013-09-12 13:54:00,
2013-09-12 06:59:00,60.1,56.8,29.92,SSW,196,0.0,1.0,89,0.00,,,0.00,Wunderground v.1.15,2013-09-12 13:59:00,
2013-09-12 07:04:00,60.1,56.8,29.93,SSW,196,0.0,0.0,89,0.00,,,0.00,Wunderground v.1.15,2013-09-12 14:04:00,
2013-09-12 07:09:00,60.1,56.8,29.93,SSW,196,0.0,0.0,89,0.00,,,0.00,Wunderground v.1.15,2013-09-12 14:09:00,
2013-09-12 07:14:00,60.1,56.8,29.94,SSW,196,0.0,1.0,89,0.00,,,0.00,Wunderground v.1.15,2013-09-12 14:14:00,
2013-09-12 07:19:00,60.2,56.9,29.94,SSW,196,0.0,2.0,89,0.00,,,0.00,Wunderground v.1.15,2013-09-12 14:19:00,
2013-09-12 07:24:00,60.2,56.9,29.94,SSW,196,2.0,2.0,89,0.00,,,0.00,Wunderground v.1.15,2013-09-12 14:24:00,
2013-09-12 07:30:00,60.2,56.9,29.94,SSW,196,0.0,1.0,89,0.00,,,0.00,Wunderground v.1.15,2013-09-12 14:30:00,
2013-09-12 07:35:00,60.3,56.7,29.95,SSW,196,2.0,2.0,88,0.00,,,0.00,Wunderground v.1.15,2013-09-12 14:35:00,
2013-09-12 07:40:00,60.3,56.7,29.95,SSW,196,3.0,3.0,88,0.00,,,0.00,Wunderground v.1.15,2013-09-12 14:40:00,
2013-09-12 07:45:00,60.5,56.6,29.95,SSW,196,3.0,5.0,87,0.00,,,0.00,Wunderground v.1.15,2013-09-12 14:45:00,
2013-09-12 07:50:00,60.6,56.7,29.95,SSW,196,2.0,3.0,87,0.00,,,0.00,Wunderground v.1.15,2013-09-12 14:50:00,
2013-09-12 07:55:00,60.9,57.0,29.95,SSW,196,2.0,4.0,87,0.00,,,0.00,Wunderground v.1.15,2013-09-12 14:55:00,
2013-09-12 08:00:00,61.1,56.9,29.95,SSW,196,1.0,2.0,86,0.00,,,0.00,Wunderground v.1.15,2013-09-12 15:00:00,
2013-09-12 08:05:00,61.3,57.4,29.95,SSW,196,0.0,2.0,87,0.00,,,0.00,Wunderground v.1.15,2013-09-12 15:05:00,
2013-09-12 08:10:00,61.6,57.4,29.95,SSW,196,0.0,0.0,86,0.00,,,0.00,Wunderground v.1.15,2013-09-12 15:10:00,
2013-09-12 08:15:00,61.9,57.7,29.95,SSW,196,0.0,0.0,86,0.00,,,0.00,Wunderground v.1.15,2013-09-12 15:15:00,
2013-09-12 08:20:00,62.2,58.0,29.95,SSW,196,0.0,0.0,86,0.00,,,0.00,Wunderground v.1.15,2013-09-12 15:20:00,
2013-09-12 08:25:00,62.8,58.5,29.96,SSW,196,0.0,2.0,86,0.00,,,0.00,Wunderground v.1.15,2013-09-12 15:25:00,
2013-09-12 08:30:00,63.5,58.6,29.96,SSW,196,0.0,1.0,84,0.00,,,0.00,Wunderground v.1.15,2013-09-12 15:30:00,
2013-09-12 08:35:00,64.0,58.7,29.96,SSW,196,0.0,2.0,83,0.00,,,0.00,Wunderground v.1.15,2013-09-12 15:35:00,
2013-09-12 08:40:00,64.3,58.7,29.96,SSW,196,0.0,0.0,82,0.00,,,0.00,Wunderground v.1.15,2013-09-12 15:40:00,
2013-09-12 08:45:00,64.7,59.1,29.96,SSW,196,0.0,1.0,82,0.00,,,0.00,Wunderground v.1.15,2013-09-12 15:45:00,
2013-09-12 08:50:00,65.1,59.1,29.96,SSW,196,0.0,1.0,81,0.00,,,0.00,Wunderground v.1.15,2013-09-12 15:50:00,
2013-09-12 08:55:00,65.4,59.4,29.96,SSW,196,2.0,2.0,81,0.00,,,0.00,Wunderground v.1.15,2013-09-12 15:55:00,
2013-09-12 09:00:00,65.9,59.6,29.96,SSW,196,3.0,3.0,80,0.00,,,0.00,Wunderground v.1.15,2013-09-12 16:00:00,
2013-09-12 09:05:00,66.4,59.3,29.96,SSW,196,2.0,4.0,78,0.00,,,0.00,Wunderground v.1.15,2013-09-12 16:05:00,
2013-09-12 09:10:00,66.7,59.6,29.96,SSW,196,4.0,4.0,78,0.00,,,0.00,Wunderground v.1.15,2013-09-12 16:10:00,
2013-09-12 09:15:00,66.9,59.5,29.96,SSW,196,0.0,4.0,77,0.00,,,0.00,Wunderground v.1.15,2013-09-12 16:15:00,
2013-09-12 09:20:00,67.0,59.5,29.96,SSW,196,2.0,5.0,77,0.00,,,0.00,Wunderground v.1.15,2013-09-12 16:20:00,
2013-09-12 09:25:00,67.2,59.4,29.95,SSW,196,0.0,5.0,76,0.00,,,0.00,Wunderground v.1.15,2013-09-12 16:25:00,
2013-09-12 09:30:00,67.5,59.7,29.96,SSW,196,3.0,3.0,76,0.00,,,0.00,Wunderground v.1.15,2013-09-12 16:30:00,
2013-09-12 09:35:00,67.7,59.5,29.95,SSW,196,1.0,4.0,75,0.00,,,0.00,Wunderground v.1.15,2013-09-12 16:35:00,
2013-09-12 09:40:00,68.2,59.6,29.96,SSW,196,1.0,2.0,74,0.00,,,0.00,Wunderground v.1.15,2013-09-12 16:40:00,
2013-09-12 09:45:00,68.4,59.8,29.96,SSW,196,2.0,5.0,74,0.00,,,0.00,Wunderground v.1.15,2013-09-12 16:45:00,
2013-09-12 09:50:00,68.6,60.0,29.95,SSW,196,0.0,1.0,74,0.00,,,0.00,Wunderground v.1.15,2013-09-12 16:50:00,
2013-09-12 09:55:00,69.0,60.4,29.96,SSW,196,2.0,4.0,74,0.00,,,0.00,Wunderground v.1.15,2013-09-12 16:55:00,
2013-09-12 10:00:00,69.5,60.5,29.96,SSW,196,1.0,1.0,73,0.00,,,0.00,Wunderground v.1.15,2013-09-12 17:00:00,
2013-09-12 10:05:00,69.8,60.8,29.96,SSW,196,1.0,3.0,73,0.00,,,0.00,Wunderground v.1.15,2013-09-12 17:05:00,
2013-09-12 10:10:00,70.4,60.9,29.96,SSW,196,0.0,1.0,72,0.00,,,0.00,Wunderground v.1.15,2013-09-12 17:10:00,
2013-09-12 10:15:00,70.8,60.9,29.96,SSW,196,0.0,4.0,71,0.00,,,0.00,Wunderground v.1.15,2013-09-12 17:15:00,
2013-09-12 10:20:00,71.4,61.1,29.96,SSW,196,1.0,1.0,70,0.00,,,0.00,Wunderground v.1.15,2013-09-12 17:20:00,
2013-09-12 10:25:00,72.0,61.3,29.96,SSW,196,3.0,6.0,69,0.00,,,0.00,Wunderground v.1.15,2013-09-12 17:25:00,
2013-09-12 10:30:00,72.2,61.0,29.96,SSW,196,0.0,2.0,68,0.00,,,0.00,Wunderground v.1.15,2013-09-12 17:30:00,
2013-09-12 10:35:00,72.5,61.3,29.95,SSW,196,0.0,2.0,68,0.00,,,0.00,Wunderground v.1.15,2013-09-12 17:35:00,
2013-09-12 10:40:00,73.1,61.5,29.95,SSW,196,0.0,1.0,67,0.00,,,0.00,Wunderground v.1.15,2013-09-12 17:40:00,
2013-09-12 10:45:00,73.3,61.3,29.95,SSW,196,2.0,6.0,66,0.00,,,0.00,Wunderground v.1.15,2013-09-12 17:45:00,
2013-09-12 10:50:00,73.5,61.4,29.95,SSW,196,3.0,4.0,66,0.00,,,0.00,Wunderground v.1.15,2013-09-12 17:50:00,
2013-09-12 10:55:00,73.7,61.6,29.95,SSW,196,3.0,5.0,66,0.00,,,0.00,Wunderground v.1.15,2013-09-12 17:55:00,
2013-09-12 11:00:00,73.4,60.9,29.95,SSW,196,0.0,2.0,65,0.00,,,0.00,Wunderground v.1.15,2013-09-12 18:00:00,
2013-09-12 11:05:00,73.3,61.3,29.95,SSW,196,0.0,4.0,66,0.00,,,0.00,Wunderground v.1.15,2013-09-12 18:05:00,
2013-09-12 11:10:00,73.7,61.2,29.95,SSW,196,0.0,2.0,65,0.00,,,0.00,Wunderground v.1.15,2013-09-12 18:10:00,
2013-09-12 11:15:00,73.9,61.4,29.95,SSW,196,1.0,4.0,65,0.00,,,0.00,Wunderground v.1.15,2013-09-12 18:15:00,
2013-09-12 11:20:00,74.0,61.0,29.95,South,186,1.0,3.0,64,0.00,,,0.00,Wunderground v.1.15,2013-09-12 18:20:00,
2013-09-12 11:25:00,74.2,61.2,29.95,South,173,8.0,8.0,64,0.00,,,0.00,Wunderground v.1.15,2013-09-12 18:25:00,
2013-09-12 11:30:00,74.4,61.4,29.94,South,170,4.0,4.0,64,0.00,,,0.00,Wunderground v.1.15,2013-09-12 18:30:00,
2013-09-12 11:35:00,74.7,61.3,29.94,South,170,2.0,5.0,63,0.00,,,0.00,Wunderground v.1.15,2013-09-12 18:35:00,
2013-09-12 11:40:00,75.0,61.5,29.94,South,176,2.0,3.0,63,0.00,,,0.00,Wunderground v.1.15,2013-09-12 18:40:00,
2013-09-12 11:45:00,75.1,61.6,29.94,South,176,3.0,7.0,63,0.00,,,0.00,Wunderground v.1.15,2013-09-12 18:45:00,
2013-09-12 11:50:00,75.4,61.5,29.94,South,180,1.0,5.0,62,0.00,,,0.00,Wunderground v.1.15,2013-09-12 18:50:00,
2013-09-12 11:55:00,74.6,61.2,29.94,South,173,3.0,9.0,63,0.00,,,0.00,Wunderground v.1.15,2013-09-12 18:55:00,
2013-09-12 12:00:00,75.5,61.6,29.93,SSW,200,2.0,7.0,62,0.00,,,0.00,Wunderground v.1.15,2013-09-12 19:00:00,
2013-09-12 12:05:00,75.3,61.4,29.93,South,170,2.0,9.0,62,0.00,,,0.00,Wunderground v.1.15,2013-09-12 19:05:00,
2013-09-12 12:10:00,75.5,61.1,29.93,South,171,4.0,5.0,61,0.00,,,0.00,Wunderground v.1.15,2013-09-12 19:10:00,
2013-09-12 12:15:00,75.7,61.3,29.93,South,171,1.0,8.0,61,0.00,,,0.00,Wunderground v.1.15,2013-09-12 19:15:00,
2013-09-12 12:20:00,76.2,61.3,29.93,South,171,4.0,4.0,60,0.00,,,0.00,Wunderground v.1.15,2013-09-12 19:20:00,
2013-09-12 12:25:00,76.5,62.0,29.93,South,173,3.0,9.0,61,0.00,,,0.00,Wunderground v.1.15,2013-09-12 19:25:00,
2013-09-12 12:30:00,76.9,62.0,29.92,SSE,163,6.0,7.0,60,0.00,,,0.00,Wunderground v.1.15,2013-09-12 19:30:00,
2013-09-12 12:35:00,76.9,62.0,29.92,SSE,163,4.0,7.0,60,0.00,,,0.00,Wunderground v.1.15,2013-09-12 19:35:00,
2013-09-12 12:40:00,78.0,62.0,29.92,SSE,163,2.0,4.0,58,0.00,,,0.00,Wunderground v.1.15,2013-09-12 19:40:00,
2013-09-12 12:45:00,78.3,62.3,29.92,SSE,163,0.0,6.0,58,0.00,,,0.00,Wunderground v.1.15,2013-09-12 19:45:00,
2013-09-12 12:50:00,78.8,61.8,29.92,South,171,5.0,6.0,56,0.00,,,0.00,Wunderground v.1.15,2013-09-12 19:50:00,
2013-09-12 12:55:00,78.7,61.7,29.91,South,175,3.0,8.0,56,0.00,,,0.00,Wunderground v.1.15,2013-09-12 19:55:00,
2013-09-12 13:00:00,78.8,61.8,29.91,South,175,2.0,6.0,56,0.00,,,0.00,Wunderground v.1.15,2013-09-12 20:00:00,
2013-09-12 13:05:00,79.4,61.8,29.91,South,180,6.0,8.0,55,0.00,,,0.00,Wunderground v.1.15,2013-09-12 20:05:00,
2013-09-12 13:10:00,79.6,62.0,29.91,South,178,4.0,7.0,55,0.00,,,0.00,Wunderground v.1.15,2013-09-12 20:10:00,
2013-09-12 13:15:00,80.2,62.0,29.90,South,178,4.0,8.0,54,0.00,,,0.00,Wunderground v.1.15,2013-09-12 20:15:00,
2013-09-12 13:20:00,80.4,62.2,29.90,South,178,5.0,6.0,54,0.00,,,0.00,Wunderground v.1.15,2013-09-12 20:20:00,
2013-09-12 13:25:00,80.4,62.2,29.90,South,180,5.0,9.0,54,0.00,,,0.00,Wunderground v.1.15,2013-09-12 20:25:00,
2013-09-12 13:30:00,81.2,62.4,29.90,South,184,6.0,11.0,53,0.00,,,0.00,Wunderground v.1.15,2013-09-12 20:30:00,
2013-09-12 13:35:00,81.2,62.4,29.89,South,175,2.0,11.0,53,0.00,,,0.00,Wunderground v.1.15,2013-09-12 20:35:00,
2013-09-12 13:40:00,81.5,62.2,29.89,South,175,2.0,5.0,52,0.00,,,0.00,Wunderground v.1.15,2013-09-12 20:40:00,
2013-09-12 13:45:00,81.6,62.3,29.89,South,177,3.0,8.0,52,0.00,,,0.00,Wunderground v.1.15,2013-09-12 20:45:00,
2013-09-12 13:50:00,82.2,62.3,29.88,South,180,10.0,10.0,51,0.00,,,0.00,Wunderground v.1.15,2013-09-12 20:50:00,
2013-09-12 13:55:00,82.5,62.5,29.88,South,173,8.0,11.0,51,0.00,,,0.00,Wunderground v.1.15,2013-09-12 20:55:00,
2013-09-12 14:00:00,82.6,62.1,29.88,SSW,200,11.0,11.0,50,0.00,,,0.00,Wunderground v.1.15,2013-09-12 21:00:00,
2013-09-12 14:05:00,82.3,62.4,29.88,South,190,3.0,11.0,51,0.00,,,0.00,Wunderground v.1.15,2013-09-12 21:05:00,
2013-09-12 14:10:00,83.1,62.5,29.88,South,178,7.0,8.0,50,0.00,,,0.00,Wunderground v.1.15,2013-09-12 21:10:00,
2013-09-12 14:15:00,83.3,62.7,29.87,South,180,4.0,9.0,50,0.00,,,0.00,Wunderground v.1.15,2013-09-12 21:15:00,
2013-09-12 14:20:00,82.8,62.3,29.87,South,180,7.0,9.0,50,0.00,,,0.00,Wunderground v.1.15,2013-09-12 21:20:00,
2013-09-12 14:25:00,83.2,62.1,29.87,South,173,6.0,11.0,49,0.00,,,0.00,Wunderground v.1.15,2013-09-12 21:25:00,
2013-09-12 14:30:00,83.3,62.7,29.87,South,179,4.0,7.0,50,0.00,,,0.00,Wunderground v.1.15,2013-09-12 21:30:00,
2013-09-12 14:35:00,84.1,62.9,29.87,South,175,2.0,8.0,49,0.00,,,0.00,Wunderground v.1.15,2013-09-12 21:35:00,
2013-09-12 14:40:00,84.3,62.5,29.87,South,178,4.0,9.0,48,0.00,,,0.00,Wunderground v.1.15,2013-09-12 21:40:00,
2013-09-12 14:45:00,83.9,62.7,29.86,South,179,6.0,11.0,49,0.00,,,0.00,Wunderground v.1.15,2013-09-12 21:45:00,
2013-09-12 14:50:00,84.5,62.7,29.86,South,173,8.0,8.0,48,0.00,,,0.00,Wunderground v.1.15,2013-09-12 21:50:00,
2013-09-12 14:55:00,84.3,62.5,29.86,South,175,4.0,11.0,48,0.00,,,0.00,Wunderground v.1.15,2013-09-12 21:55:00,
2013-09-12 15:00:00,84.3,63.1,29.85,South,173,5.0,9.0,49,0.00,,,0.00,Wunderground v.1.15,2013-09-12 22:00:00,
2013-09-12 15:05:00,84.7,62.8,29.85,South,175,5.0,9.0,48,0.00,,,0.00,Wunderground v.1.15,2013-09-12 22:05:00,
2013-09-12 15:10:00,84.8,62.9,29.85,South,169,4.0,9.0,48,0.00,,,0.00,Wunderground v.1.15,2013-09-12 22:10:00,
2013-09-12 15:15:00,85.4,62.9,29.85,South,170,5.0,9.0,47,0.00,,,0.00,Wunderground v.1.15,2013-09-12 22:15:00,
2013-09-12 15:21:00,85.9,63.3,29.85,South,170,3.0,6.0,47,0.00,,,0.00,Wunderground v.1.15,2013-09-12 22:21:00,
2013-09-12 15:26:00,85.8,63.2,29.85,South,174,2.0,9.0,47,0.00,,,0.00,Wunderground v.1.15,2013-09-12 22:26:00,
2013-09-12 15:31:00,86.3,63.7,29.84,South,175,1.0,7.0,47,0.00,,,0.00,Wunderground v.1.15,2013-09-12 22:31:00,
2013-09-12 15:36:00,86.0,63.4,29.84,South,174,7.0,9.0,47,0.00,,,0.00,Wunderground v.1.15,2013-09-12 22:36:00,
2013-09-12 15:41:00,85.8,63.2,29.84,South,181,3.0,9.0,47,0.00,,,0.00,Wunderground v.1.15,2013-09-12 22:41:00,
2013-09-12 15:46:00,85.9,63.3,29.84,South,172,7.0,11.0,47,0.00,,,0.00,Wunderground v.1.15,2013-09-12 22:46:00,
2013-09-12 15:51:00,86.1,63.5,29.84,South,180,1.0,6.0,47,0.00,,,0.00,Wunderground v.1.15,2013-09-12 22:51:00,
2013-09-12 15:56:00,86.6,64.0,29.83,South,172,6.0,10.0,47,0.00,,,0.00,Wunderground v.1.15,2013-09-12 22:56:00,
2013-09-12 16:01:00,86.8,63.5,29.83,South,178,6.0,14.0,46,0.00,,,0.00,Wunderground v.1.15,2013-09-12 23:01:00,
2013-09-12 16:06:00,87.2,63.9,29.83,South,187,8.0,14.0,46,0.00,,,0.00,Wunderground v.1.15,2013-09-12 23:06:00,
2013-09-12 16:11:00,87.4,63.5,29.82,SSW,203,6.0,10.0,45,0.00,,,0.00,Wunderground v.1.15,2013-09-12 23:11:00,
2013-09-12 16:16:00,87.4,63.5,29.82,SSW,203,7.0,10.0,45,0.00,,,0.00,Wunderground v.1.15,2013-09-12 23:16:00,
2013-09-12 16:21:00,87.4,63.5,29.82,SSW,200,6.0,9.0,45,0.00,,,0.00,Wunderground v.1.15,2013-09-12 23:21:00,
2013-09-12 16:26:00,87.4,63.5,29.82,South,180,4.0,10.0,45,0.00,,,0.00,Wunderground v.1.15,2013-09-12 23:26:00,
2013-09-12 16:31:00,87.4,63.5,29.82,SSW,203,7.0,12.0,45,0.00,,,0.00,Wunderground v.1.15,2013-09-12 23:31:00,
2013-09-12 16:36:00,87.1,63.2,29.81,South,169,5.0,15.0,45,0.00,,,0.00,Wunderground v.1.15,2013-09-12 23:36:00,
2013-09-12 16:41:00,87.0,63.1,29.81,SSW,194,1.0,7.0,45,0.00,,,0.00,Wunderground v.1.15,2013-09-12 23:41:00,
2013-09-12 16:46:00,87.7,63.1,29.81,SSW,200,4.0,11.0,44,0.00,,,0.00,Wunderground v.1.15,2013-09-12 23:46:00,
2013-09-12 16:51:00,87.5,62.9,29.81,SSW,212,3.0,10.0,44,0.00,,,0.00,Wunderground v.1.15,2013-09-12 23:51:00,
2013-09-12 16:56:00,87.3,63.4,29.81,SW,219,9.0,14.0,45,0.00,,,0.00,Wunderground v.1.15,2013-09-12 23:56:00,
2013-09-12 17:01:00,86.5,63.3,29.81,SSW,207,10.0,15.0,46,0.00,,,0.00,Wunderground v.1.15,2013-09-13 00:01:00,
2013-09-12 17:06:00,85.7,63.1,29.81,South,171,4.0,15.0,47,0.00,,,0.00,Wunderground v.1.15,2013-09-13 00:06:00,
2013-09-12 17:11:00,85.3,63.4,29.80,SW,216,8.0,13.0,48,0.00,,,0.00,Wunderground v.1.15,2013-09-13 00:11:00,
2013-09-12 17:16:00,84.8,62.9,29.81,SW,232,6.0,13.0,48,0.00,,,0.00,Wunderground v.1.15,2013-09-13 00:16:00,
2013-09-12 17:21:00,84.4,63.2,29.81,SW,230,4.0,13.0,49,0.00,,,0.00,Wunderground v.1.15,2013-09-13 00:21:00,
2013-09-12 17:26:00,84.0,62.8,29.80,South,171,7.0,15.0,49,0.00,,,0.00,Wunderground v.1.15,2013-09-13 00:26:00,
2013-09-12 17:31:00,83.7,63.1,29.80,SW,219,8.0,11.0,50,0.00,,,0.00,Wunderground v.1.15,2013-09-13 00:31:00,
2013-09-12 17:36:00,83.3,62.7,29.80,SSE,162,7.0,11.0,50,0.00,,,0.00,Wunderground v.1.15,2013-09-13 00:36:00,
2013-09-12 17:41:00,83.1,62.5,29.80,SSW,212,6.0,11.0,50,0.00,,,0.00,Wunderground v.1.15,2013-09-13 00:41:00,
2013-09-12 17:46:00,83.0,62.4,29.80,South,184,4.0,14.0,50,0.00,,,0.00,Wunderground v.1.15,2013-09-13 00:46:00,
2013-09-12 17:51:00,82.7,62.2,29.80,SW,219,7.0,16.0,50,0.00,,,0.00,Wunderground v.1.15,2013-09-13 00:51:00,
2013-09-12 17:56:00,82.5,62.0,29.80,SSW,200,7.0,16.0,50,0.00,,,0.00,Wunderground v.1.15,2013-09-13 00:56:00,
2013-09-12 18:01:00,82.4,61.3,29.80,South,184,10.0,10.0,49,0.00,,,0.00,Wunderground v.1.15,2013-09-13 01:01:00,
2013-09-12 18:06:00,82.2,61.1,29.80,SSW,198,10.0,11.0,49,0.00,,,0.00,Wunderground v.1.15,2013-09-13 01:06:00,
2013-09-12 18:11:00,82.0,61.0,29.80,SW,217,9.0,9.0,49,0.00,,,0.00,Wunderground v.1.15,2013-09-13 01:11:00,
2013-09-12 18:16:00,81.6,60.6,29.80,SW,217,6.0,13.0,49,0.00,,,0.00,Wunderground v.1.15,2013-09-13 01:16:00,
2013-09-12 18:21:00,80.9,59.9,29.80,SSW,209,6.0,9.0,49,0.00,,,0.00,Wunderground v.1.15,2013-09-13 01:21:00,
2013-09-12 18:26:00,80.3,60.0,29.80,SSW,213,8.0,11.0,50,0.00,,,0.00,Wunderground v.1.15,2013-09-13 01:26:00,
2013-09-12 18:31:00,79.8,60.1,29.80,SW,217,5.0,12.0,51,0.00,,,0.00,Wunderground v.1.15,2013-09-13 01:31:00,
2013-09-12 18:36:00,79.4,59.7,29.80,SSW,213,6.0,13.0,51,0.00,,,0.00,Wunderground v.1.15,2013-09-13 01:36:00,
2013-09-12 18:41:00,79.1,59.4,29.80,South,174,7.0,12.0,51,0.00,,,0.00,Wunderground v.1.15,2013-09-13 01:41:00,
2013-09-12 18:46:00,78.5,59.4,29.80,SSW,198,7.0,14.0,52,0.00,,,0.00,Wunderground v.1.15,2013-09-13 01:46:00,
2013-09-12 18:51:00,77.9,59.4,29.80,SSW,209,12.0,15.0,53,0.00,,,0.00,Wunderground v.1.15,2013-09-13 01:51:00,
2013-09-12 18:56:00,77.3,58.8,29.80,South,186,4.0,15.0,53,0.00,,,0.00,Wunderground v.1.15,2013-09-13 01:56:00,
2013-09-12 19:01:00,76.8,58.9,29.80,SSW,193,3.0,12.0,54,0.00,,,0.00,Wunderground v.1.15,2013-09-13 02:01:00,
2013-09-12 19:06:00,76.4,59.0,29.80,South,188,4.0,12.0,55,0.00,,,0.00,Wunderground v.1.15,2013-09-13 02:06:00,
2013-09-12 19:11:00,76.0,58.7,29.80,SSW,207,7.0,8.0,55,0.00,,,0.00,Wunderground v.1.15,2013-09-13 02:11:00,
2013-09-12 19:16:00,75.8,59.0,29.80,SSW,200,4.0,11.0,56,0.00,,,0.00,Wunderground v.1.15,2013-09-13 02:16:00,
2013-09-12 19:21:00,75.5,58.7,29.80,SSW,204,5.0,9.0,56,0.00,,,0.00,Wunderground v.1.15,2013-09-13 02:21:00,
2013-09-12 19:26:00,75.1,58.8,29.80,South,188,6.0,13.0,57,0.00,,,0.00,Wunderground v.1.15,2013-09-13 02:26:00,
2013-09-12 19:31:00,74.7,58.5,29.80,SW,215,8.0,13.0,57,0.00,,,0.00,Wunderground v.1.15,2013-09-13 02:31:00,
2013-09-12 19:36:00,74.1,58.4,29.80,SSW,193,7.0,13.0,58,0.00,,,0.00,Wunderground v.1.15,2013-09-13 02:36:00,
2013-09-12 19:41:00,73.6,58.9,29.80,SSW,205,7.0,10.0,60,0.00,,,0.00,Wunderground v.1.15,2013-09-13 02:41:00,
2013-09-12 19:46:00,73.1,58.4,29.80,SW,224,9.0,12.0,60,0.00,,,0.00,Wunderground v.1.15,2013-09-13 02:46:00,
2013-09-12 19:51:00,72.5,58.3,29.81,SW,232,6.0,8.0,61,0.00,,,0.00,Wunderground v.1.15,2013-09-13 02:51:00,
2013-09-12 19:56:00,71.9,58.2,29.81,SSW,200,7.0,13.0,62,0.00,,,0.00,Wunderground v.1.15,2013-09-13 02:56:00,
2013-09-12 20:01:00,71.2,58.0,29.81,SW,216,9.0,9.0,63,0.00,,,0.00,Wunderground v.1.15,2013-09-13 03:01:00,
2013-09-12 20:06:00,70.6,57.8,29.81,SSW,211,6.0,13.0,64,0.00,,,0.00,Wunderground v.1.15,2013-09-13 03:06:00,
2013-09-12 20:11:00,70.1,57.8,29.81,South,190,8.0,12.0,65,0.00,,,0.00,Wunderground v.1.15,2013-09-13 03:11:00,
2013-09-12 20:16:00,69.9,58.0,29.81,South,183,7.0,13.0,66,0.00,,,0.00,Wunderground v.1.15,2013-09-13 03:16:00,
2013-09-12 20:22:00,69.7,57.8,29.81,SSW,213,8.0,10.0,66,0.00,,,0.00,Wunderground v.1.15,2013-09-13 03:22:00,
2013-09-12 20:27:00,69.6,58.2,29.82,SSW,212,10.0,13.0,67,0.00,,,0.00,Wunderground v.1.15,2013-09-13 03:27:00,
2013-09-12 20:32:00,69.5,58.1,29.82,SW,216,6.0,13.0,67,0.00,,,0.00,Wunderground v.1.15,2013-09-13 03:32:00,
2013-09-12 20:37:00,69.3,57.9,29.82,SSW,202,7.0,13.0,67,0.00,,,0.00,Wunderground v.1.15,2013-09-13 03:37:00,
2013-09-12 20:42:00,69.2,57.8,29.82,SSW,192,3.0,8.0,67,0.00,,,0.00,Wunderground v.1.15,2013-09-13 03:42:00,
2013-09-12 20:47:00,68.9,57.9,29.83,South,187,6.0,12.0,68,0.00,,,0.00,Wunderground v.1.15,2013-09-13 03:47:00,
2013-09-12 20:52:00,68.5,57.5,29.83,SSW,195,9.0,16.0,68,0.00,,,0.00,Wunderground v.1.15,2013-09-13 03:52:00,
2013-09-12 20:57:00,68.1,57.5,29.83,SSW,203,7.0,16.0,69,0.00,,,0.00,Wunderground v.1.15,2013-09-13 03:57:00,
2013-09-12 21:01:00,67.9,57.4,29.83,South,172,6.0,10.0,69,0.00,,,0.00,Wunderground v.1.15,2013-09-13 04:01:00,
2013-09-12 21:02:00,67.8,57.3,29.83,SSW,196,5.0,10.0,69,0.00,,,0.00,Wunderground v.1.15,2013-09-13 04:02:00,
2013-09-12 21:03:00,67.8,57.3,29.83,SSW,193,9.0,12.0,69,0.00,,,0.00,Wunderground v.1.15,2013-09-13 04:03:00,
2013-09-12 21:08:00,67.5,57.4,29.83,SSW,207,5.0,12.0,70,0.00,,,0.00,Wunderground v.1.15,2013-09-13 04:08:00,
2013-09-12 21:13:00,67.2,57.5,29.83,SSW,205,5.0,11.0,71,0.00,,,0.00,Wunderground v.1.15,2013-09-13 04:13:00,
2013-09-12 21:18:00,67.0,57.3,29.84,SSW,208,6.0,12.0,71,0.00,,,0.00,Wunderground v.1.15,2013-09-13 04:18:00,
2013-09-12 21:23:00,66.8,57.5,29.84,SSW,199,6.0,9.0,72,0.00,,,0.00,Wunderground v.1.15,2013-09-13 04:23:00,
2013-09-12 21:28:00,66.5,57.2,29.84,SW,214,8.0,11.0,72,0.00,,,0.00,Wunderground v.1.15,2013-09-13 04:28:00,
2013-09-12 21:33:00,66.3,57.4,29.84,WSW,238,7.0,10.0,73,0.00,,,0.00,Wunderground v.1.15,2013-09-13 04:33:00,
2013-09-12 21:38:00,66.0,57.5,29.84,SSW,207,5.0,13.0,74,0.00,,,0.00,Wunderground v.1.15,2013-09-13 04:38:00,
2013-09-12 21:43:00,65.7,57.2,29.84,South,184,8.0,14.0,74,0.00,,,0.00,Wunderground v.1.15,2013-09-13 04:43:00,
2013-09-12 21:48:00,65.4,57.3,29.84,SW,231,6.0,14.0,75,0.00,,,0.00,Wunderground v.1.15,2013-09-13 04:48:00,
2013-09-12 21:53:00,65.1,57.3,29.84,South,185,6.0,10.0,76,0.00,,,0.00,Wunderground v.1.15,2013-09-13 04:53:00,
2013-09-12 21:58:00,64.9,57.2,29.84,SSW,200,6.0,14.0,76,0.00,,,0.00,Wunderground v.1.15,2013-09-13 04:58:00,
2013-09-12 22:03:00,64.8,57.4,29.84,SW,220,9.0,13.0,77,0.00,,,0.00,Wunderground v.1.15,2013-09-13 05:03:00,
2013-09-12 22:08:00,64.7,57.3,29.84,SW,222,3.0,13.0,77,0.00,,,0.00,Wunderground v.1.15,2013-09-13 05:08:00,
2013-09-12 22:13:00,64.7,57.3,29.84,South,190,7.0,9.0,77,0.00,,,0.00,Wunderground v.1.15,2013-09-13 05:13:00,
2013-09-12 22:18:00,64.7,57.3,29.84,South,171,7.0,12.0,77,0.00,,,0.00,Wunderground v.1.15,2013-09-13 05:18:00,
2013-09-12 22:23:00,64.6,57.2,29.84,SW,221,6.0,12.0,77,0.00,,,0.00,Wunderground v.1.15,2013-09-13 05:23:00,
2013-09-12 22:28:00,64.5,57.1,29.84,SSW,193,6.0,12.0,77,0.00,,,0.00,Wunderground v.1.15,2013-09-13 05:28:00,
2013-09-12 22:33:00,64.3,57.3,29.84,SW,218,6.0,8.0,78,0.00,,,0.00,Wunderground v.1.15,2013-09-13 05:33:00,
2013-09-12 22:38:00,64.2,57.2,29.84,SSW,198,8.0,9.0,78,0.00,,,0.00,Wunderground v.1.15,2013-09-13 05:38:00,
2013-09-12 22:43:00,64.0,57.0,29.84,South,183,6.0,11.0,78,0.00,,,0.00,Wunderground v.1.15,2013-09-13 05:43:00,
2013-09-12 22:48:00,63.8,57.2,29.84,SSW,192,4.0,11.0,79,0.00,,,0.00,Wunderground v.1.15,2013-09-13 05:48:00,
2013-09-12 22:53:00,63.7,57.1,29.84,SW,220,10.0,12.0,79,0.00,,,0.00,Wunderground v.1.15,2013-09-13 05:53:00,
2013-09-12 22:58:00,63.6,57.3,29.84,SW,214,10.0,12.0,80,0.00,,,0.00,Wunderground v.1.15,2013-09-13 05:58:00,
2013-09-12 23:03:00,63.6,57.3,29.83,SSW,201,5.0,12.0,80,0.00,,,0.00,Wunderground v.1.15,2013-09-13 06:03:00,
2013-09-12 23:08:00,63.6,57.3,29.83,SSW,202,4.0,12.0,80,0.00,,,0.00,Wunderground v.1.15,2013-09-13 06:08:00,
2013-09-12 23:13:00,63.7,57.4,29.83,SSW,211,8.0,9.0,80,0.00,,,0.00,Wunderground v.1.15,2013-09-13 06:13:00,
2013-09-12 23:18:00,63.8,57.2,29.83,SSW,210,3.0,13.0,79,0.00,,,0.00,Wunderground v.1.15,2013-09-13 06:18:00,
2013-09-12 23:23:00,63.9,57.3,29.83,South,182,9.0,10.0,79,0.00,,,0.00,Wunderground v.1.15,2013-09-13 06:23:00,
2013-09-12 23:28:00,64.0,57.4,29.83,SSW,212,5.0,10.0,79,0.00,,,0.00,Wunderground v.1.15,2013-09-13 06:28:00,
2013-09-12 23:33:00,64.1,57.5,29.83,SW,216,7.0,10.0,79,0.00,,,0.00,Wunderground v.1.15,2013-09-13 06:33:00,
2013-09-12 23:38:00,64.2,57.2,29.83,SSW,207,4.0,10.0,78,0.00,,,0.00,Wunderground v.1.15,2013-09-13 06:38:00,
2013-09-12 23:43:00,64.4,57.4,29.82,SW,229,6.0,12.0,78,0.00,,,0.00,Wunderground v.1.15,2013-09-13 06:43:00,
2013-09-12 23:48:00,64.6,57.2,29.82,SSW,197,4.0,12.0,77,0.00,,,0.00,Wunderground v.1.15,2013-09-13 06:48:00,
2013-09-12 23:53:00,64.7,57.3,29.82,SSW,205,3.0,9.0,77,0.00,,,0.00,Wunderground v.1.15,2013-09-13 06:53:00,
2013-09-12 23:58:00,64.8,57.4,29.82,South,190,6.0,9.0,77,0.00,,,0.00,Wunderground v.1.15,2013-09-13 06:58:00,